BST,Max TemperatureF,Mean TemperatureF,Min TemperatureF,Max Dew PointF,MeanDew PointF,Min DewpointF,Max Humidity, Mean Humidity, Min Humidity, Max Sea Level PressureIn, Mean Sea Level PressureIn, Min Sea Level PressureIn, Max VisibilityMiles, Mean VisibilityMiles, Min VisibilityMiles, Max Wind SpeedMPH, Mean Wind SpeedMPH, Max Gust SpeedMPH,PrecipitationIn, CloudCover, Events, WindDirDegrees
2013-8-1,91,76,60,66,61,57,94,61,33,29.95,29.82,29.71,6,6,6,17,8,,0.00,1,,150
2013-8-2,77,70,64,63,59,55,78,68,53,29.83,29.79,29.74,6,6,6,15,9,,0.00,1,Thunderstorm,227
2013-8-3,75,67,59,59,55,52,88,66,47,30.09,29.98,29.83,6,6,6,21,15,,0.00,2,Rain-Thunderstorm,220
2013-8-4,75,67,59,57,54,50,94,64,41,30.12,30.09,30.06,6,6,6,18,12,,0.00,2,,209
2013-8-5,77,70,62,63,57,48,88,67,38,30.04,29.88,29.74,6,6,4,18,11,,0.00,2,Rain,191
2013-8-6,71,62,53,57,51,45,88,66,38,30.04,29.99,29.89,6,6,6,14,7,,0.00,1,,296
2013-8-7,69,62,53,57,52,48,94,71,49,30.04,29.95,29.92,6,6,6,14,6,,0.00,1,,22
2013-8-8,75,62,48,55,50,45,100,62,34,30.12,30.09,30.04,6,6,6,14,6,,0.00,1,,266
2013-8-9,75,67,59,61,54,45,94,64,36,30.15,30.07,30.04,6,6,3,16,10,,0.00,3,Rain,262
2013-8-10,71,63,55,50,46,41,77,53,35,30.18,30.15,30.12,6,6,6,13,7,,0.00,1,,283
2013-8-11,75,63,51,55,50,45,88,60,36,30.12,30.04,29.98,6,6,6,16,8,,0.00,2,,260
2013-8-12,69,63,57,52,46,39,77,55,33,30.06,30.01,29.98,6,6,6,15,7,,0.00,1,,278
2013-8-13,68,60,53,52,47,43,82,62,43,30.18,30.14,30.06,6,6,6,12,8,,0.00,2,,283
2013-8-14,73,63,53,57,52,46,94,66,41,30.21,30.18,30.15,6,6,6,62,9,,0.00,2,Rain,230
2013-8-15,78,69,60,61,58,55,88,70,47,30.15,30.07,30.01,6,6,6,21,12,,0.00,3,,223
2013-8-16,69,64,59,63,60,55,94,84,68,30.04,29.97,29.95,6,6,6,16,11,,0.00,3,Rain,215
2013-8-17,71,65,59,59,56,52,94,76,56,29.98,29.88,29.77,6,6,6,28,13,,0.00,4,Rain,218
2013-8-18,75,68,60,59,55,50,88,68,41,29.89,29.80,29.71,6,6,6,22,15,,0.00,3,Rain,237
2013-8-19,73,64,55,54,47,41,77,54,33,30.30,30.10,29.89,6,6,6,14,9,,0.00,1,,300
2013-8-20,75,66,57,52,48,43,77,54,31,30.36,30.33,30.30,6,6,6,13,5,,0.00,1,,210
2013-8-21,77,65,53,57,53,50,88,60,39,30.30,30.21,30.15,,,,10,6,,0.00,,,204
2013-8-22,66,63,60,63,61,55,100,90,73,30.15,30.11,30.09,6,6,4,7,4,,0.00,3,Rain,96
2013-8-23,73,66,59,64,61,57,100,81,64,30.06,29.97,29.86,6,5,4,15,8,,0.00,2,,86
2013-8-24,66,63,60,63,61,43,100,91,45,29.86,29.81,29.80,6,3,1,15,7,,0.00,5,Rain,297
2013-8-25,69,63,57,61,59,55,94,83,68,30.04,29.91,29.77,6,5,2,17,11,,0.00,5,Rain,27
2013-8-26,75,66,57,63,57,46,94,76,38,30.09,30.06,30.04,6,5,3,15,8,,0.00,4,,33
2013-8-27,73,62,51,59,53,41,100,73,31,30.12,30.06,30.04,6,4,0,9,5,,0.00,4,Fog,354
2013-8-28,71,63,55,55,54,50,100,75,46,30.21,30.17,30.12,6,4,0,9,5,,0.00,4,Fog,54
2013-8-29,75,65,55,57,53,50,88,66,41,30.18,30.15,30.12,6,6,6,15,7,,0.00,1,,239
2013-8-30,75,67,59,61,57,55,88,70,50,30.12,30.08,30.04,6,6,6,17,9,,0.00,2,,240
2013-8-31,68,60,53,59,44,36,88,55,32,30.36,30.26,30.09,6,6,6,13,9,,0.00,2,,325